Regional Weather Roundup
Issued by NWS State College, PA

Home | Current Version | Previous Version | Text Only | Print | Product List | Glossary On
Versions: 1 2 3 4 5 6 7 8 9 10 11 12 13 14 15 16 17 18 19 20 21 22 23 24 25 26 27 28 29 30 31 32 33 34 35 36 37 38 39 40 41 42 43 44 45 46 47 48 49 50
000
ASUS41 KCTP 051703
RWRCTP

REGIONAL WEATHER ROUNDUP
NATIONAL WEATHER SERVICE STATE COLLEGE PA
1200 PM EST THU MAR 05 2015

Note: "fair" indicates few or no clouds below 12,000 feet with no
significant weather and/or obstructions to visibility.

* = STATION THAT DOES NOT REPORT PRECIPITATION /E.G. RAIN...SNOW...ETC/
    THUNDER OR FOG.

PAZ002>004-007>009-013>016-020>023-029>032-051800-
WESTERN PENNSYLVANIA

CITY           SKY/WX    TMP DP  RH WIND       PRES   REMARKS
ERIE           PTSUNNY   11  -2  56 NW8       30.35F WCI  -1
MEADVILLE      CLOUDY     9  -4  55 NW9       30.26F WCI  -4
FRANKLIN*      CLOUDY    10  -8  44 N7        30.24R WCI   0
NEW CASTLE     FAIR      12  -1  56 N9        30.31R WCI   0
BEAVER COUNTY  PTSUNNY   16   1  53 NW10      30.26S WCI   3
BUTLER*        CLOUDY    16  -2  45 N9        30.26R WCI   4
PITTSBURGH INT CLOUDY    16   4  59 NW12      30.25R WCI   3
PITTSBURGH     CLOUDY    16   6  65 NW8       30.23S WCI   5
INDIANA*       SUNNY     16   7  67 NW6       30.22F WCI   7
LATROBE        LGT SNOW  16  10  79 N9        30.24F WCI   4
WASHINGTON CO* CLOUDY    16   7  67 NW9       30.27R WCI   4
$$

PAZ004>006-010>012-017>019-024>028-033>037-041-042-045-046-049>053-051800-
CENTRAL PENNSYLVANIA

CITY           SKY/WX    TMP DP  RH WIND       PRES   REMARKS
BRADFORD         N/A    N/A N/A N/A MISG      30.13S
DUBOIS         CLOUDY    13  -5  44 NW12      30.15F WCI  -1
CLEARFIELD     CLOUDY    15  -3  44 NW7       30.17F WCI   5
JOHNSTOWN      LGT SNOW  13   8  81 NW10      30.08F VSB 1   WCI   0
ALTOONA        CLOUDY    19   8  62 NW12      30.14F WCI   7
STATE COLLEGE  CLOUDY    19   3  49 N9        30.17S WCI   9
WILLIAMSPORT   CLOUDY    20   1  43 N12       30.22R WCI   8
SELINSGROVE    CLOUDY    22   6  50 N12G20    30.22R WCI  10
FT INDIANTOWN  LGT SNOW  21  16  79 NE6       30.20R VSB 5/8 WCI  14
CAPITAL CITY   HVY SNOW  20  18  92 N8        30.21R VSB 1/4 WCI  10
HARRISBURG     HVY SNOW  21  17  84 N10       30.20S VSB 1/4 WCI  10
YORK           SNOW      23  20  88 N13       30.17R VSB 1/2 WCI  11
$$

PAZ038>040-043-044-047-048-054-055-060>062-067>071-051800-
EASTERN PENNSYLVANIA

CITY           SKY/WX    TMP DP  RH WIND       PRES   REMARKS
SCRANTON       CLOUDY    18   1  47 N15       30.17R WCI   4
MOUNT POCONO   CLOUDY    15   1  53 NW10G18   30.04R WCI   2
ALLENTOWN      LGT SNOW  21  14  74 NW3       30.20R VSB 1
QUAKERTOWN*    CLOUDY    21  18  86 N8        30.19R VSB 1/4 WCI  12
READING        HVY SNOW  21  18  88 N7        30.21R VSB 1/4 WCI  12
LANCASTER      SNOW      22  18  85 NE15      30.19R VSB 1/2 WCI   9
COATESVILLE    NOT AVBL
POTTSTOWN      SNOW      22  20  92 N13G20    30.21R VSB 1/2 WCI  10
BLUE BELL      NOT AVBL
DOYLESTOWN     LGT SNOW  22  21  96 N6        30.17R VSB 3/4 WCI  14
WILLOW GROVE   NOT AVBL
NORTH PHILA    SNOW      28  25  88 N15       30.20R VSB 1/4
PHILADELPHIA   SNOW      28  26  92 N10       30.20R VSB 1/2
$$



USA.gov is the U.S. government's official web portal to all federal, state and local government web resources and services.